St George Airport
PAPB : now visible

Airfield :











YOU CAN JOIN US ON...

 
LOGIN :

Register | Disclaimer

   EN    FR    IT 

 









Legend :    VFR   Marginal VFR   IFR   Intensive IFR   Very Intensive IFR
Visi :
Ceiling :
>= 8 km
>= 3000ft
5 to 8 km
1000 to 3000 ft
1500m to 5 km
500 to 1000 ft
800 to 1500m
200 to 500 ft
< 800m
< 200 ft
Symbols :   Thunderstorms  Fog  Heavy snow  Heavy precipitations  Wind > 20 kt






- Airport Elevation : 125 ft
- IATA code : PBV


PAPB - St George

EXPIRED METARs :
  • 261853Z AUTO 25012KT 10SM FEW020 SCT031 BKN055 01/M03 A2939 RMK AO2 PK WND 25035/1808 SNB14E47 SLP940 P0000 T00061033 FZRANO TSNO
  • 261849Z AUTO 26013KT 9SM SCT020 01/M03 A2939 RMK AO2 PK WND 25035/1808 SNB14E47 P0000 FZRANO TSNO
  • 261835Z AUTO 27015G29KT 2 1/2SM -SN SCT021 BKN028 BKN037 00/M03 A2939 RMK AO2 PK WND 25035/1808 SNB14 P0000 T00001033 FZRANO TSNO

TAF N/A
PAZA FIR / North America



MET'MAP, your aeronautical weather chart ! - Copyright ORBIFLY December 2007 - Disclaimer

ORBIFLY MET'MAP TEAM :

Programming & Development : Alexandra Zaïnal
Concept & original design : Baudouin d'Aumeries
Assistance for programming : Marc-Olivier Méhu
Technical & hardware support : Manuel Goepfert

Contact : metmap@orbifly.com




SOURCES & CREDITS :

   NOAA       Earth
Advisory